Regional Weather Roundup
Issued by NWS Midland/Odessa, TX

Skip options and go directly to product.
Home | Oldest Version | Previous Version | Current Version | All | Text Only | Save Text | Print | Product List | Glossary On

Skip product version selection by date and time.   
709
ASUS44 KMAF 081010
RWRMAF
MIDLAND AREA WEATHER ROUNDUP
NATIONAL WEATHER SERVICE MIDLAND TX
400 AM CST MON FEB 08 2016

...IN SOUTHWEST TEXAS AND SOUTHEAST NEW MEXICO...

CITY           SKY/WX    TMP DP  RH WIND       PRES   REMARKS
ALPINE         CLOUDY    40  19  41 N7        30.42R WCI  36
ANDREWS        FAIR      32  15  49 N6        30.42R WCI  26
ARTESIA        CLOUDY    30  21  69 N13       30.49R WCI  20
BIG SPRING     CLOUDY    35  14  42 N13       30.42R WCI  26
CARLSBAD       CLOUDY    36  19  50 NE8       30.46R WCI  30
DRYDEN           N/A     47  24  40 N8        30.34R
FORT STOCKTON  CLOUDY    40  24  53 NE14      30.40R WCI  32
GUAD PASS      CLOUDY    37  18  46 NE33      30.35S WCI  24
HOBBS          CLEAR     30  16  55 N12       30.44R WCI  21
MARFA          CLOUDY    42  16  34 N14       30.35R WCI  35
MIDLAND AIRPK  CLOUDY    37  17  43 N5        30.42R WCI  33
MIDLAND INTL   CLOUDY    36  17  46 N9        30.40S WCI  29
ODESSA         CLOUDY    35  16  45 NE8       30.41S WCI  29
PECOS          CLOUDY    40  22  48 NE10      30.43R WCI  34
PRESIDIO       FAIR      49  15  25 N9        30.27S
SEMINOLE       CLOUDY    32  16  51 N8        30.44R WCI  25
SNYDER           N/A     36  14  41 N13       30.40S WCI  27
WINK           PTCLDY    39  16  39 NE7       30.41R WCI  34
$$
...OTHER STATIONS IN TEXAS...

CITY           SKY/WX    TMP DP  RH WIND       PRES   REMARKS
ABILENE        CLEAR     33  19  56 N9        30.38S WCI  25
AMARILLO       CLOUDY    26  13  57 NW13      30.42S WCI  15
AUSTIN         CLEAR     50  31  48 N17       30.25R
BROWNSVILLE    CLOUDY    54  51  90 SE3       30.15F
CORPUS CHRISTI CLOUDY    46  45  96 W3        30.17R
DALLAS FTW     PTCLDY    44  20  38 NW16      30.28S WCI  37
DEL RIO        PTCLDY    48  26  42 W5        30.29R
EL PASO        MOCLDY    40  15  36 NE8       30.30S WCI  34
HOUSTON INT    CLEAR     48  39  71 NW7       30.21R
LUBBOCK        CLOUDY    26  13  57 N8        30.42R WCI  18
SAN ANGELO     CLOUDY    41  18  39 NE9       30.37S WCI  35
SAN ANTONIO    PTCLDY    52  29  41 N15G22    30.24R
WACO           CLEAR     45  25  45 N14       30.30R WCI  38
WICHITA FALLS  NOT AVBL
$$
...OTHER LOCATIONS IN NEW MEXICO...

CITY           SKY/WX    TMP DP  RH WIND       PRES   REMARKS
ALAMAGORDO     CLEAR     36  14  41 CALM      30.33S
ALBUQUERQUE    CLOUDY    37  19  48 N8        30.41S WCI  31
CANNON AFB     CLEAR     23  13  67 N9        30.44R WCI  13
CLOVIS         CLEAR     21  12  68 N10       30.44S WCI  10
HOLLOMAN AFB   CLOUDY    33  13  43 NE7       30.32R WCI  26
ROSWELL        CLOUDY    31  15  52 N9        30.49R WCI  23
RUIDOSO          N/A     25  14  63 SE7       30.44S WCI  17
SANTA FE       CLOUDY    24  18  77 N8        30.40R WCI  15
TRUTH OR CONSE CLEAR     40  17  39 N9        30.36S WCI  34
TUCUMCARI      CLOUDY    20  14  77 NW6       30.45S WCI  12
$$

USA.gov is the U.S. government's official web portal to all federal, state and local government web resources and services.